Location: Cambridge
(43.3830°N, 80.3170°W)
Time: 13:38:20
(UTC-04:00)

Envisat - Pass Details

Date: 22 March 2019
Orbit: 764 x 766 km, 98.1° (Epoch: 19 October)

Event Time Altitude Azimuth Distance (km) Brightness Sun altitude
Rises 21:18:07 0° 212° (SSW) 3,216 6.4 -19.0°
Reaches altitude 10° 21:21:23 10° 235° (SW) 2,297 5.9 -19.5°
Maximum altitude 21:24:19 15° 270° (W) 1,951 6.0 -20.0°
Drops below altitude 10° 21:27:16 10° 306° (NW) 2,307 6.6 -20.5°
Sets 21:30:35 0° 329° (NNW) 3,240 7.1 -21.1°
